FW0910 Weather Reports


Display with metric or nautical units.
time (UTC)temp
F
wind
direction
speed
MPH
gust
MPH
rain 1hr
in
rain 24hr
in
rain mn
in
humidity
%
barometer
mb
20190627105516 67 225 1.0 2.0 0.00 0.00 0.00 75 1009.1
20190627104515 67 0.0 0.0 0.00 0.00 0.00 76 1009.0
20190627103515 67 225 1.0 2.0 0.00 0.00 0.00 77 1009.2
20190627102556 66 0.0 1.0 0.00 0.00 0.00 77 1009.3
20190627101633 66 0.0 0.0 0.00 0.00 0.00 78 1009.2
20190627100518 66 0.0 0.0 0.00 0.00 0.00 78 1009.3
20190627094715 66 0.0 0.0 0.00 0.00 0.00 79 1009.5
20190627092517 66 0.0 0.0 0.00 0.00 0.00 79 1009.5
20190627091517 66 0.0 0.0 0.00 0.00 0.00 79 1009.5
20190627090518 66 0.0 0.0 0.00 0.00 0.00 79 1009.5
20190627082524 66 225 1.0 2.0 0.00 0.00 0.00 79 1009.6
20190627081543 66 0.0 0.0 0.00 0.00 0.00 79 1009.5
20190627075604 67 0.0 1.0 0.00 0.00 0.00 79 1009.5
20190627074537 68 0.0 0.0 0.00 0.00 0.00 79 1009.6
20190627073517 68 0.0 0.0 0.00 0.00 0.00 79 1009.6
20190627072517 68 0.0 0.0 0.00 0.00 0.00 79 1009.6
20190627071517 68 0.0 0.0 0.00 0.00 0.00 79 1009.7
20190627070542 69 0.0 0.0 0.00 0.00 0.00 78 1009.7
20190627064552 69 0.0 0.0 0.00 0.00 0.00 77 1009.8
20190627063517 69 0.0 0.0 0.00 0.00 0.00 76 1009.9
20190627062522 69 0.0 0.0 0.00 0.00 0.00 75 1009.8
20190627061521 70 0.0 0.0 0.00 0.00 0.00 73 1009.8
20190627060520 70 0.0 0.0 0.00 0.00 0.00 72 1009.8
20190627055515 70 0.0 0.0 0.00 0.00 0.00 71 1009.9
20190627054516 71 0.0 0.0 0.00 0.00 0.00 70 1009.9
20190627053541 71 0.0 0.0 0.00 0.00 0.00 68 1009.8
20190627052621 71 0.0 0.0 0.00 0.00 0.00 67 1009.7
20190627051533 72 0.0 0.0 0.00 0.00 0.00 65 1009.7
20190627050515 73 0.0 0.0 0.00 0.00 0.00 64 1009.6
20190627045522 73 0.0 0.0 0.00 0.00 0.00 62 1009.5
20190627044515 74 225 1.0 2.0 0.00 0.00 0.00 60 1009.3
20190627043519 74 225 1.0 2.0 0.00 0.00 0.00 59 1009.1
20190627042521 75 0.0 1.0 0.00 0.00 0.00 57 1008.9
20190627041526 75 225 1.0 1.0 0.00 0.00 0.00 59 1008.7
20190627035520 76 0.0 0.0 0.00 0.00 0.00 57 1008.5
20190627034516 76 0.0 0.0 0.00 0.00 0.00 55 1008.3
20190627032517 78 0.0 0.0 0.00 0.00 0.00 52 1008.0
20190627030523 80 0.0 0.0 0.00 0.00 0.00 49 1007.8
20190627025547 82 0.0 0.0 0.00 0.00 0.00 47 1007.9
20190627024518 83 225 1.0 1.0 0.00 0.00 0.00 44 1007.8
20190627023518 84 0.0 1.0 0.00 0.00 0.00 42 1007.6
20190627022518 85 0.0 1.0 0.00 0.00 0.00 43 1007.5
20190627021518 87 0.0 1.0 0.00 0.00 0.00 40 1007.5
20190627020517 87 225 1.0 2.0 0.00 0.00 0.00 40 1007.4
20190627015517 88 225 1.0 1.0 0.00 0.00 0.00 37 1007.4
20190627014518 89 225 1.0 2.0 0.00 0.00 0.00 37 1007.4
20190627013517 90 225 2.0 3.0 0.00 0.00 0.00 35 1007.3
20190627012518 90 225 2.0 3.0 0.00 0.00 0.00 32 1007.3
20190627011518 91 202 2.0 3.0 0.00 0.00 0.00 34 1007.3
20190627010518 91 202 2.0 4.0 0.00 0.00 0.00 32 1007.1
20190627005517 92 180 2.0 3.0 0.00 0.00 0.00 32 1007.1
20190627004518 92 225 2.0 4.0 0.00 0.00 0.00 33 1007.1
20190627003517 93 247 2.0 3.0 0.00 0.00 0.00 34 1007.2
20190627002518 93 225 2.0 4.0 0.00 0.00 0.00 31 1007.1
20190627001518 93 225 1.0 2.0 0.00 0.00 0.00 31 1007.3
20190627000518 93 202 5.0 7.0 0.00 0.00 0.00 32 1007.3
20190626235517 93 202 5.0 8.0 0.00 0.00 0.00 28 1007.3
20190626234517 93 202 4.0 6.0 0.00 0.00 0.00 30 1007.5
20190626233517 94 202 5.0 8.0 0.00 0.00 0.00 26 1007.5
20190626232517 95 247 2.0 4.0 0.00 0.00 0.00 28 1007.6
20190626231517 95 202 4.0 6.0 0.00 0.00 0.00 27 1007.8
20190626230518 95 202 5.0 9.0 0.00 0.00 0.00 24 1007.7
20190626225520 95 202 6.0 9.0 0.00 0.00 0.00 30 1007.7
20190626224517 96 225 3.0 6.0 0.00 0.00 0.00 29 1007.7
20190626223517 96 225 3.0 5.0 0.00 0.00 0.00 30 1007.8
20190626222517 96 202 7.0 11.0 0.00 0.00 0.00 27 1007.9
20190626221517 95 225 5.0 8.0 0.00 0.00 0.00 26 1008.1
20190626220517 96 202 5.0 8.0 0.00 0.00 0.00 25 1008.0
20190626215516 96 202 4.0 7.0 0.00 0.00 0.00 26 1008.2
20190626214517 96 225 5.0 8.0 0.00 0.00 0.00 26 1008.1
20190626213517 97 202 6.0 9.0 0.00 0.00 0.00 26 1008.2
20190626212516 98 202 7.0 10.0 0.00 0.00 0.00 26 1008.2
20190626211527 98 202 6.0 7.0 0.00 0.00 0.00 25 1008.2
20190626210516 98 202 8.0 13.0 0.00 0.00 0.00 25 1008.3
20190626205517 98 202 8.0 12.0 0.00 0.00 0.00 27 1008.3
20190626204517 98 202 8.0 10.0 0.00 0.00 0.00 26 1008.3
20190626203517 98 202 9.0 15.0 0.00 0.00 0.00 25 1008.5
20190626202516 97 225 4.0 6.0 0.00 0.00 0.00 29 1008.5
20190626201517 98 180 4.0 6.0 0.00 0.00 0.00 28 1008.6
20190626200517 98 202 5.0 7.0 0.00 0.00 0.00 29 1008.6
20190626195516 97 202 5.0 8.0 0.00 0.00 0.00 31 1008.7
20190626194517 97 292 3.0 6.0 0.00 0.00 0.00 30 1008.9
20190626193517 97 225 8.0 11.0 0.00 0.00 0.00 31 1009.0
20190626192517 96 180 7.0 13.0 0.00 0.00 0.00 31 1009.0
20190626191516 96 157 5.0 9.0 0.00 0.00 0.00 31 1009.1
20190626190516 96 225 1.0 3.0 0.00 0.00 0.00 32 1009.3
20190626185517 95 202 2.0 3.0 0.00 0.00 0.00 31 1009.4
20190626184516 94 202 3.0 5.0 0.00 0.00 0.00 34 1009.4
20190626183517 94 202 5.0 8.0 0.00 0.00 0.00 33 1009.5
20190626182517 94 202 5.0 9.0 0.00 0.00 0.00 34 1009.5
20190626181516 93 247 4.0 7.0 0.00 0.00 0.00 39 1009.7
20190626180517 93 202 3.0 5.0 0.00 0.00 0.00 36 1009.8
20190626175516 92 180 4.0 8.0 0.00 0.00 0.00 37 1009.8
20190626174517 92 202 4.0 6.0 0.00 0.00 0.00 35 1009.8
20190626173516 91 202 5.0 10.0 0.00 0.00 0.00 37 1009.8
20190626172516 91 202 5.0 8.0 0.00 0.00 0.00 36 1009.9
20190626171516 90 225 3.0 7.0 0.00 0.00 0.00 38 1009.9
20190626170516 90 225 3.0 4.0 0.00 0.00 0.00 42 1009.8
20190626165517 90 202 4.0 6.0 0.00 0.00 0.00 42 1009.9
20190626164516 89 202 2.0 4.0 0.00 0.00 0.00 42 1010.1
20190626163517 89 247 3.0 4.0 0.00 0.00 0.00 40 1010.0
20190626162517 88 202 6.0 7.0 0.00 0.00 0.00 41 1010.0
20190626161517 88 202 5.0 6.0 0.00 0.00 0.00 43 1010.0
20190626160516 87 225 2.0 3.0 0.00 0.00 0.00 44 1009.9
20190626155516 87 180 2.0 2.0 0.00 0.00 0.00 43 1009.9
20190626154515 86 180 1.0 2.0 0.00 0.00 0.00 48 1009.9
20190626153516 85 202 2.0 3.0 0.00 0.00 0.00 50 1010.0
20190626152516 85 180 2.0 4.0 0.00 0.00 0.00 53 1009.9
20190626151516 83 180 1.0 2.0 0.00 0.00 0.00 55 1010.1
20190626150516 83 157 2.0 2.0 0.00 0.00 0.00 58 1010.0
20190626145516 82 157 1.0 3.0 0.00 0.00 0.00 61 1009.9
20190626144515 80 157 1.0 2.0 0.00 0.00 0.00 64 1009.9
20190626143515 77 157 2.0 3.0 0.00 0.00 0.00 67 1009.8
20190626142516 75 0.0 1.0 0.00 0.00 0.00 69 1009.7
20190626141515 72 0.0 0.0 0.00 0.00 0.00 76 1009.6
20190626140518 70 0.0 0.0 0.00 0.00 0.00 78 1009.6
20190626135542 68 0.0 0.0 0.00 0.00 0.00 79 1009.5
20190626134515 67 0.0 0.0 0.00 0.00 0.00 79 1009.5
20190626133515 66 0.0 0.0 0.00 0.00 0.00 80 1009.4
20190626132515 65 0.0 0.0 0.00 0.00 0.00 79 1009.1
20190626131522 65 0.0 1.0 0.00 0.00 0.00 79 1009.0
20190626130515 65 292 1.0 1.0 0.00 0.00 0.00 80 1008.9
20190626125516 64 0.0 1.0 0.00 0.00 0.00 80 1008.8
20190626124515 65 0.0 0.0 0.00 0.00 0.00 80 1008.7
20190626123521 65 247 1.0 1.0 0.00 0.00 0.00 80 1008.6
20190626122535 65 0.0 1.0 0.00 0.00 0.00 80 1008.5
20190626121533 65 0.0 0.0 0.00 0.00 0.00 80 1008.4
20190626120515 66 0.0 0.0 0.00 0.00 0.00 79 1008.3
20190626115552 66 0.0 0.0 0.00 0.00 0.00 79 1008.3
20190626114517 66 0.0 0.0 0.00 0.00 0.00 78 1008.2
20190626113527 67 0.0 0.0 0.00 0.00 0.00 78 1008.2
20190626112517 67 0.0 0.0 0.00 0.00 0.00 78 1008.1
20190626111517 67 0.0 0.0 0.00 0.00 0.00 78 1008.0
20190626110518 67 0.0 0.0 0.00 0.00 0.00 78 1008.0